• Join FlightAware (Why Join?)
  • Login
  • US Flag 
06:28PM EST


 

Airport Tracker/Info


-or-


 

Live Flight TrackerFlight Track Log ✈ N789EX ✈ 07-Mar-2014 ✈ KBFI - KMWH

Flight Track Log - Related Links

Times and Time Zones

All times are in EST time to prevent confusion due to time zone crossing. See the N789EX flight status page for this flight to view local times or setup timezone preferences in your user account.

Time Position Orientation Groundspeed Altitude Reporting Facility
EST Latitude Longitude Course Direction KTS MPH feet Rate Location/Type
06:18PM 47.5136 -122.2880 149° Southeast 180 207 1,100  Level FlightAware ADS-B
06:19PM 47.5051 -122.2800 146° Southeast 199 229 1,600 2,100 Climbing FlightAware ADS-B
06:19PM 47.4918 -122.2660 145° Southeast 225 259 2,100 2,700 Climbing FlightAware ADS-B
06:19PM 47.4781 -122.2530 146° Southeast 245 282 3,000 3,780 Climbing FlightAware ADS-B
06:19PM 47.4637 -122.2380 145° Southeast 255 293 4,000 3,600 Climbing FlightAware ADS-B
06:20PM 47.4489 -122.2230 145° Southeast 253 291 4,800 2,760 Climbing FlightAware ADS-B
06:20PM 47.4342 -122.2080 145° Southeast 256 295 5,400 1,980 Climbing FlightAware ADS-B
06:20PM 47.4260 -122.1990 144° Southeast 259 298 5,600 960 Climbing FlightAware ADS-B
06:20PM 47.4227 -122.1960 142° Southeast 259 298 5,600 840 Level FlightAware ADS-B
06:20PM 47.4192 -122.1910 136° Southeast 260 299 5,700 840 Climbing FlightAware ADS-B
06:20PM 47.4167 -122.1870 130° Southeast 263 303 5,700  Level FlightAware ADS-B
06:20PM 47.4143 -122.1810 122° Southeast 265 305 5,700  Level FlightAware ADS-B
06:20PM 47.4122 -122.1750 117° Southeast 266 306 5,700  Level FlightAware ADS-B
06:20PM 47.4105 -122.1690 110° East 269 310 5,700  Level FlightAware ADS-B
06:20PM 47.4094 -122.1630 103° East 271 312 5,700  Level FlightAware ADS-B
06:20PM 47.4087 -122.1570 97° East 272 313 5,700  Level FlightAware ADS-B
06:20PM 47.4085 -122.1490 91° East 272 313 5,700  Level FlightAware ADS-B
06:21PM 47.4089 -122.1390 86° East 273 314 5,700 360 Level FlightAware ADS-B
06:21PM 47.4099 -122.1200 86° East 275 316 5,800 1,680 Climbing FlightAware ADS-B
06:21PM 47.4114 -122.0920 85° East 275 316 6,400 3,180 Climbing FlightAware ADS-B
06:21PM 47.4127 -122.0670 85° East 278 320 7,300 4,260 Climbing FlightAware ADS-B
06:21PM 47.4143 -122.0380 86° East 283 326 8,400 4,020 Climbing FlightAware ADS-B
06:22PM 47.4159 -122.0070 86° East 291 335 9,400 3,120 Climbing FlightAware ADS-B
06:22PM 47.4190 -121.9450 86° East 327 376 10,800 2,340 Climbing FlightAware ADS-B
06:23PM 47.4227 -121.8720 86° East 369 425 11,800 2,400 Climbing FlightAware ADS-B
06:23PM 47.4263 -121.7940 86° East 390 449 13,300 3,360 Climbing FlightAware ADS-B
06:24PM 47.4288 -121.7190 89° East 397 457 15,100 3,780 Climbing FlightAware ADS-B
06:24PM 47.4289 -121.6680 91° East 403 464 16,200 3,420 Climbing FlightAware ADS-B
06:25PM 47.4275 -121.5840 91° East 412 474 17,900 3,060 Climbing FlightAware ADS-B
06:25PM 47.4264 -121.4960 91° East 426 490 19,400 3,000 Climbing FlightAware ADS-B
06:26PM 47.4252 -121.4070 91° East 433 498 21,000 2,760 Climbing FlightAware ADS-B
06:26PM 47.4239 -121.3160 91° East 448 516 22,200 2,460 Climbing FlightAware ADS-B
06:27PM 47.4223 -121.2230 91° East 459 528 23,500 2,760 Climbing FlightAware ADS-B
06:27PM 47.4206 -121.1240 91° East 463 533 25,100 2,400 Climbing FlightAware ADS-B
06:28PM 47.4190 -121.0270 91° East 477 549 26,000 1,740 Climbing FlightAware ADS-B
06:28PM 47.4170 -120.9240 92° East 491 565 26,900 1,740 Climbing FlightAware ADS-B
06:29PM 47.4149 -120.8200 92° East 504 580 27,800 1,620 Climbing FlightAware ADS-B
06:29PM 47.4127 -120.7150 92° East 517 595 28,600 1,740 Climbing FlightAware ADS-B
06:30PM 47.4104 -120.6080 92° East 523 602 29,600 1,920 Climbing FlightAware ADS-B
06:30PM 47.4077 -120.4950 92° East 530 610 30,600 1,860 Climbing FlightAware ADS-B
06:31PM 47.4049 -120.3770 92° East 534 615 31,600 2,040 Climbing FlightAware ADS-B
06:31PM 47.4181 -120.9806 91° East 475 547 31,900 2,280 Climbing FlightAware ADS-B (CYWH)
06:31PM 47.4022 -120.2670 92° East 522 601 32,800 1,140 Climbing FlightAware ADS-B
06:32PM 47.3994 -120.1600 92° East 512 589 33,000 180 Climbing FlightAware ADS-B
06:32PM 47.3965 -120.0540 92° East 509 586 33,000  Level FlightAware ADS-B
06:33PM 47.3918 -119.9570 99° East 513 590 33,000  Level FlightAware ADS-B
06:33PM 47.3895 -119.9400 101° East 515 593 33,000  Level FlightAware ADS-B
06:33PM 47.3853 -119.9140 105° East 518 596 33,000  Level FlightAware ADS-B
06:33PM 47.3791 -119.8870 110° East 522 601 33,000  Level FlightAware ADS-B
06:33PM 47.3703 -119.8570 115° Southeast 526 605 33,000  Level FlightAware ADS-B
06:33PM 47.3627 -119.8370 122° Southeast 529 609 33,000  Level FlightAware ADS-B
06:34PM 47.3338 -119.7850 132° Southeast 531 611 33,000  Level FlightAware ADS-B
06:34PM 47.3073 -119.7420 132° Southeast 530 610 33,000  Level FlightAware ADS-B
06:34PM 47.2914 -119.7120 125° Southeast 528 608 33,000 -600 Level FlightAware ADS-B
06:34PM 47.3103 -119.7444 76° East 526 605 32,900  Descending Seattle Center
06:34PM 47.2827 -119.6900 118° Southeast 524 603 33,000 360 Climbing FlightAware ADS-B
06:34PM 47.2749 -119.6590 108° East 518 596 33,000  Level FlightAware ADS-B
06:35PM 47.2700 -119.6110 97° East 511 588 33,000  Level FlightAware ADS-B
06:35PM 47.2686 -119.5590 92° East 508 585 33,000 -240 Level FlightAware ADS-B
06:35PM 47.2700 -119.5500 107° East 513 590 32,900  Descending Seattle Center
06:35PM 47.2708 -119.4980 84° East 500 575 33,000 300 Climbing FlightAware ADS-B
06:35PM 47.2812 -119.4470 71° East 489 563 33,000  Level FlightAware ADS-B
06:36PM 47.2900 -119.4010 76° East 496 571 33,000 -180 Level FlightAware ADS-B
06:36PM 47.2975 -119.3519 78° East 509 586 32,900  Descending Seattle Center
06:37PM 47.3219 -119.1860 76° East 497 572 33,000 60 Climbing FlightAware ADS-B
06:37PM 47.3261 -119.1531 78° East 501 577 33,000  Level Seattle Center
06:38PM 47.3631 -118.9153 77° East 499 574 33,000 -60 Level Seattle Center
06:39PM 47.3953 -118.7156 77° East 502 578 32,900 -900 Descending Seattle Center
06:40PM 47.2086 -119.3191 76° East  Level Estimated
06:40PM 47.4044 -118.5142 86° East 506 582 31,200  Level Seattle Center
06:41PM 47.3128 -118.3614 131° Southeast 511 588 26,900 -4,560 Descending Seattle Center
06:42PM 47.1817 -118.3547 178° South 481 554 22,000 -4,800 Descending Seattle Center
06:43PM 47.0925 -118.4678 221° Southwest 399 459 17,200 -4,920 Descending Seattle Center
06:44PM 47.0722 -118.6139 259° West 359 413 12,000 -3,300 Descending Seattle Center
06:45PM 47.0819 -118.7608 276° West 333 383 10,500 -1,500 Descending Seattle Center
06:46PM 47.0894 -118.8739 276° West 279 321 9,000 -1,980 Descending Seattle Center
06:47PM 47.0969 -118.9822 276° West 266 306 6,500 -2,460 Descending Seattle Center